EW5676 Weather Reports


Display with metric or nautical units.
time (UTC)temp
F
wind
direction
speed
MPH
gust
MPH
rain 1hr
in
rain 24hr
in
rain mn
in
humidity
%
barometer
mb
20260508204803 58 296 7.0 16.0 0.00 0.00 0.00 55 1017.9
20260508203902 58 300 8.0 16.0 0.00 0.00 0.00 55 1017.8
20260508203002 58 301 10.0 19.0 0.00 0.00 0.00 53 1017.6
20260508202102 58 304 10.0 18.0 0.00 0.00 0.00 54 1017.7
20260508201202 58 300 9.0 20.0 0.00 0.00 0.00 53 1017.7
20260508200302 58 283 7.0 18.0 0.00 0.00 0.00 52 1017.7
20260508195402 56 284 9.0 20.0 0.00 0.00 0.00 55 1017.9
20260508194502 57 286 12.0 26.0 0.00 0.00 0.00 54 1018.0
20260508193603 57 292 10.0 19.0 0.00 0.00 0.00 53 1017.7
20260508192701 58 298 9.0 18.0 0.00 0.00 0.00 51 1017.6
20260508191801 60 295 9.0 18.0 0.00 0.00 0.00 46 1017.3
20260508190901 61 294 9.0 17.0 0.00 0.00 0.00 43 1017.2
20260508190002 60 284 8.0 19.0 0.00 0.00 0.00 43 1017.2
20260508185102 60 286 10.0 20.0 0.00 0.00 0.00 43 1017.3
20260508184202 60 277 10.0 21.0 0.00 0.00 0.00 43 1017.2
20260508183302 60 272 8.0 18.0 0.00 0.00 0.00 41 1017.2
20260508182401 60 269 9.0 17.0 0.00 0.00 0.00 42 1017.3
20260508181502 61 276 11.0 26.0 0.00 0.00 0.00 40 1017.3
20260508180601 62 278 9.0 21.0 0.00 0.00 0.00 40 1017.2
20260508175701 60 279 10.0 21.0 0.00 0.00 0.00 41 1017.2
20260508173902 60 272 7.0 16.0 0.00 0.00 0.00 44 1017.3
20260508173001 60 281 9.0 17.0 0.00 0.00 0.00 41 1017.3
20260508172101 60 282 9.0 21.0 0.00 0.00 0.00 42 1017.4
20260508170301 60 295 10.0 21.0 0.00 0.00 0.00 45 1017.3
20260508164502 59 289 8.0 14.0 0.00 0.00 0.00 44 1017.6
20260508163601 59 295 7.0 16.0 0.00 0.00 0.00 42 1017.8
20260508161801 58 300 9.0 17.0 0.00 0.00 0.00 43 1017.9
20260508160001 58 301 8.0 16.0 0.00 0.00 0.00 42 1018.1
20260508155100 58 286 7.0 13.0 0.00 0.00 0.00 41 1018.3
20260508154200 57 284 7.0 14.0 0.00 0.00 0.00 43 1018.2
20260508153301 57 287 7.0 13.0 0.00 0.00 0.00 47 1018.3
20260508152400 57 285 8.0 15.0 0.00 0.00 0.00 47 1018.3
20260508151500 56 279 6.0 13.0 0.00 0.00 0.00 50 1018.4
20260508150601 56 283 8.0 14.0 0.00 0.00 0.00 51 1018.4
20260508145700 56 287 7.0 15.0 0.00 0.00 0.00 52 1018.5
20260508144800 56 277 5.0 10.0 0.00 0.00 0.00 52 1018.4
20260508143900 55 294 7.0 13.0 0.00 0.00 0.00 48 1018.5
20260508143000 55 295 5.0 11.0 0.00 0.00 0.00 56 1018.3
20260508141200 54 291 7.0 11.0 0.00 0.00 0.00 60 1018.4
20260508135401 53 297 5.0 11.0 0.00 0.00 0.00 65 1018.4
20260508134500 53 302 5.0 13.0 0.00 0.00 0.00 68 1018.4
20260508133602 52 296 6.0 15.0 0.00 0.00 0.00 68 1018.7
20260508132701 52 306 8.0 15.0 0.00 0.00 0.00 69 1018.8
20260508130901 52 299 7.0 14.0 0.00 0.00 0.00 69 1018.9
20260508130000 52 305 7.0 15.0 0.00 0.00 0.00 67 1018.8
20260508124200 52 308 7.0 13.0 0.00 0.00 0.00 71 1018.9
20260508123300 52 301 6.0 10.0 0.00 0.00 0.00 69 1018.8
20260508121501 51 306 7.0 12.0 0.00 0.00 0.00 67 1018.6
20260508120600 51 292 5.0 9.0 0.00 0.00 0.00 69 1018.6
20260508115700 51 287 6.0 11.0 0.00 0.00 0.00 70 1018.6
20260508113901 50 289 5.0 11.0 0.00 0.00 0.00 72 1018.5
20260508113000 50 288 5.0 10.0 0.00 0.00 0.00 74 1018.4
20260508112100 49 285 5.0 8.0 0.00 0.00 0.00 76 1018.3
20260508111200 49 292 4.0 10.0 0.00 0.00 0.00 79 1018.3
20260508110300 48 290 3.0 7.0 0.00 0.00 0.00 80 1018.2
20260508104500 48 291 4.0 8.0 0.00 0.00 0.00 81 1018.1
20260508103600 48 298 3.0 8.0 0.00 0.00 0.00 80 1018.0
20260508100859 48 307 6.0 12.0 0.00 0.00 0.00 81 1017.7
20260508095959 48 315 6.0 12.0 0.00 0.00 0.00 81 1017.6
20260508095100 48 312 6.0 11.0 0.00 0.00 0.00 81 1017.5
20260508094200 48 310 6.0 12.0 0.00 0.00 0.00 81 1017.5
20260508093300 48 307 6.0 10.0 0.00 0.00 0.00 80 1017.4
20260508090559 47 317 2.0 5.0 0.00 0.00 0.00 78 1017.2
20260508085700 47 319 3.0 6.0 0.00 0.00 0.00 78 1017.3
20260508084759 47 325 3.0 6.0 0.00 0.00 0.00 77 1017.2
20260508083859 47 337 3.0 5.0 0.00 0.00 0.00 77 1017.2
20260508082059 47 322 5.0 11.0 0.00 0.00 0.00 77 1017.4
20260508081159 47 325 6.0 11.0 0.00 0.00 0.00 78 1017.5
20260508080259 47 321 6.0 11.0 0.00 0.00 0.00 79 1017.5
20260508075400 47 323 6.0 14.0 0.00 0.00 0.00 79 1017.6
20260508074459 47 322 6.0 13.0 0.00 0.00 0.00 79 1017.7
20260508073559 47 323 8.0 14.0 0.00 0.00 0.00 80 1017.8
20260508072659 47 319 10.0 17.0 0.00 0.00 0.00 79 1017.9
20260508071800 48 302 11.0 25.0 0.00 0.00 0.00 76 1017.9
20260508070900 50 312 6.0 16.0 0.00 0.00 0.00 64 1017.8
20260508065100 49 301 5.0 12.0 0.00 0.00 0.00 69 1017.4
20260508064159 47 296 3.0 7.0 0.00 0.00 0.00 76 1017.1
20260508063259 44 335 1.0 3.0 0.00 0.00 0.00 84 1016.0
20260508062359 42 0 0.0 0.0 0.00 0.00 0.00 90 1015.9
20260508061459 42 0 0.0 0.0 0.00 0.00 0.00 89 1015.8
20260508054759 43 0 0.0 0.0 0.00 0.00 0.00 87 1015.6
20260508053859 43 0 0.0 0.0 0.00 0.00 0.00 86 1015.7
20260508052959 44 0 0.0 0.0 0.00 0.00 0.00 85 1015.7
20260508052059 45 0 0.0 0.0 0.00 0.00 0.00 83 1015.6
20260508050258 45 47 0.0 2.0 0.00 0.00 0.00 89 1015.6
20260508045400 44 82 0.0 1.0 0.00 0.00 0.00 90 1015.5
20260508044458 44 82 0.0 2.0 0.00 0.00 0.00 89 1015.5
20260508043558 44 0 0.0 0.0 0.00 0.00 0.00 89 1015.6
20260508042658 45 0 0.0 0.0 0.00 0.00 0.00 89 1015.7
20260508041758 45 0 0.0 0.0 0.00 0.00 0.00 89 1015.7
20260508040859 45 0 0.0 0.0 0.00 0.00 0.00 88 1015.8
20260508035959 45 0 0.0 0.0 0.00 0.00 0.00 88 1015.7
20260508034159 46 0 0.0 0.0 0.00 0.00 0.00 87 1015.8
20260508033259 46 0 0.0 0.0 0.00 0.00 0.00 86 1015.7
20260508032358 46 0 0.0 0.0 0.00 0.00 0.00 86 1015.6
20260508031458 47 0 0.0 0.0 0.00 0.00 0.00 85 1015.6
20260508030558 47 0 0.0 0.0 0.00 0.00 0.00 83 1015.6
20260508025659 48 0 0.0 0.0 0.00 0.00 0.00 83 1015.7
20260508024758 48 0 0.0 0.0 0.00 0.00 0.00 82 1015.7
20260508023859 48 0 0.0 0.0 0.00 0.00 0.00 80 1015.6
20260508022958 49 0 0.0 0.0 0.00 0.00 0.00 79 1015.6
20260508022059 49 0 0.0 0.0 0.00 0.00 0.00 79 1015.6
20260508021158 50 0 0.0 0.0 0.00 0.00 0.00 77 1015.6
20260508020258 50 218 0.0 1.0 0.00 0.00 0.00 76 1015.6
20260508015359 51 216 0.0 2.0 0.00 0.00 0.00 75 1015.6
20260508014458 51 215 0.0 2.0 0.00 0.00 0.00 74 1015.6
20260508013559 51 201 1.0 3.0 0.00 0.00 0.00 73 1015.6
20260508012659 52 193 1.0 4.0 0.00 0.00 0.00 71 1015.4
20260508011758 52 151 2.0 5.0 0.00 0.00 0.00 68 1015.4
20260508005958 53 176 3.0 7.0 0.00 0.00 0.00 65 1015.3
20260508005058 53 220 3.0 5.0 0.00 0.00 0.00 62 1015.0
20260508003258 53 0 0.0 0.0 0.00 0.00 0.00 62 1014.8
20260508002358 54 0 0.0 0.0 0.00 0.00 0.00 59 1014.5
20260508001458 55 0 0.0 0.0 0.00 0.00 0.00 56 1014.5
20260508000558 56 0 0.0 0.0 0.00 0.00 0.00 53 1014.5
20260507234757 59 270 0.0 3.0 0.00 0.00 0.00 48 1014.2
20260507233858 60 279 2.0 4.0 0.00 0.00 0.00 45 1014.2
20260507232958 60 287 2.0 5.0 0.00 0.00 0.00 42 1014.0
20260507232058 61 275 1.0 4.0 0.00 0.00 0.00 41 1013.8
20260507231158 61 288 3.0 7.0 0.00 0.00 0.00 39 1013.7
20260507230258 62 289 2.0 6.0 0.00 0.00 0.00 37 1013.6
20260507225358 61 281 3.0 7.0 0.00 0.00 0.00 38 1013.7
20260507224458 62 290 3.0 6.0 0.00 0.00 0.00 38 1013.7
20260507223558 62 291 4.0 8.0 0.00 0.00 0.00 37 1013.6
20260507222658 62 287 4.0 7.0 0.00 0.00 0.00 36 1013.7
20260507221758 62 283 5.0 8.0 0.00 0.00 0.00 36 1013.7
20260507220858 62 293 3.0 7.0 0.00 0.00 0.00 35 1013.8
20260507215957 62 306 3.0 7.0 0.00 0.00 0.00 36 1013.7
20260507215058 62 299 3.0 6.0 0.00 0.00 0.00 35 1013.7
20260507214157 62 292 4.0 9.0 0.00 0.00 0.00 37 1013.6
20260507213257 62 289 4.0 9.0 0.00 0.00 0.00 35 1013.6
20260507211458 62 297 4.0 9.0 0.00 0.00 0.00 36 1013.5
20260507205657 62 293 4.0 9.0 0.00 0.00 0.00 37 1013.6